When you browse on this site, cookies collect data to enhance your experience and personalize the content and advertising you see.
Visit our Privacy Policy to learn more. By continuing to use the site, you agree to this use of cookies and data.
  • In Latvia
  • List of Countries
  • For 7 days
  • Water Temperature
  • Weather Map
  • Weather Widgets
  • user-avatar
    Login

    Hourly Weather Siva

    Today, 25 May, Monday

    Time Temperature Precipitation Wind Pressure Humidity
    00:00 +21°C° 0 mm 4 mps 760 mmHg 36%
    01:00 +20°C° 0 mm 3 mps 760 mmHg 40%
    02:00 +19°C° 0 mm 2 mps 759 mmHg 44%
    03:00 +18°C° 0 mm 2 mps 759 mmHg 46%
    04:00 +18°C° 0 mm 2 mps 759 mmHg 49%
    05:00 +18°C° 0 mm 1 mps 759 mmHg 52%
    06:00 +19°C° 0 mm 1 mps 760 mmHg 49%
    07:00 +21°C° 0 mm 1 mps 760 mmHg 45%
    08:00 +21°C° 0 mm 2 mps 760 mmHg 42%
    09:00 +24°C° 0 mm 2 mps 760 mmHg 37%
    10:00 +26°C° 0 mm 2 mps 760 mmHg 32%
    11:00 +28°C° 0 mm 3 mps 760 mmHg 27%
    12:00 +29°C° 0 mm 3 mps 759 mmHg 25%
    13:00 +32°C° 0 mm 4 mps 758 mmHg 23%
    14:00 +33°C° 0 mm 4 mps 758 mmHg 22%
    15:00 +34°C° 0 mm 4 mps 757 mmHg 21%
    16:00 +35°C° 0 mm 4 mps 757 mmHg 20%
    17:00 +35°C° 0 mm 5 mps 757 mmHg 19%
    18:00 +34°C° 0 mm 4 mps 757 mmHg 20%
    19:00 +32°C° 0 mm 4 mps 757 mmHg 22%
    20:00 +30°C° 0 mm 3 mps 757 mmHg 24%
    21:00 +28°C° 0 mm 4 mps 757 mmHg 29%
    22:00 +27°C° 0 mm 4 mps 758 mmHg 34%
    23:00 +26°C° 0 mm 4 mps 758 mmHg 40%

    Tomorrow, 26 May, Tuesday

    Time Temperature Precipitation Wind Pressure Humidity
    00:00 +25°C° 0 mm 4 mps 758 mmHg 42%
    01:00 +24°C° 0 mm 3 mps 757 mmHg 45%
    02:00 +24°C° 0 mm 3 mps 757 mmHg 47%
    03:00 +22°C° 0 mm 3 mps 757 mmHg 50%
    04:00 +21°C° 0 mm 2 mps 757 mmHg 53%
    05:00 +21°C° 0 mm 2 mps 757 mmHg 56%
    06:00 +23°C° 0 mm 2 mps 758 mmHg 54%
    07:00 +23°C° 0 mm 2 mps 758 mmHg 52%
    08:00 +24°C° 0 mm 2 mps 758 mmHg 51%
    09:00 +26°C° 0 mm 2 mps 758 mmHg 44%
    10:00 +28°C° 0 mm 1 mps 758 mmHg 37%
    11:00 +30°C° 0 mm 1 mps 758 mmHg 31%
    12:00 +31°C° 0 mm 2 mps 757 mmHg 27%
    13:00 +34°C° 0 mm 2 mps 757 mmHg 23%
    14:00 +35°C° 0 mm 3 mps 756 mmHg 20%
    15:00 +35°C° 0 mm 4 mps 756 mmHg 19%
    16:00 +36°C° 0 mm 4 mps 756 mmHg 17%
    17:00 +36°C° 0 mm 4 mps 755 mmHg 16%
    18:00 +34°C° 0 mm 4 mps 755 mmHg 18%
    19:00 +33°C° 0 mm 3 mps 756 mmHg 19%
    20:00 +30°C° 0 mm 3 mps 756 mmHg 20%
    21:00 +29°C° 0 mm 4 mps 756 mmHg 27%
    22:00 +27°C° 0 mm 5 mps 756 mmHg 34%
    23:00 +26°C° 0 mm 6 mps 757 mmHg 41%

    Day after tomorrow, 27 May, Wednesday

    Time Temperature Precipitation Wind Pressure Humidity
    00:00 +25°C° 0 mm 5 mps 756 mmHg 45%
    01:00 +23°C° 0 mm 4 mps 756 mmHg 48%
    02:00 +22°C° 0 mm 4 mps 756 mmHg 51%
    03:00 +22°C° 0 mm 3 mps 756 mmHg 55%
    04:00 +21°C° 0 mm 3 mps 756 mmHg 60%
    05:00 +20°C° 0 mm 3 mps 756 mmHg 65%
    06:00 +21°C° 0 mm 3 mps 757 mmHg 62%
    07:00 +22°C° 0 mm 3 mps 757 mmHg 59%
    08:00 +23°C° 0 mm 4 mps 758 mmHg 56%
    09:00 +26°C° 0 mm 3 mps 758 mmHg 48%
    10:00 +28°C° 0 mm 3 mps 758 mmHg 40%
    11:00 +30°C° 0 mm 2 mps 758 mmHg 32%
    12:00 +31°C° 0 mm 2 mps 757 mmHg 28%
    13:00 +32°C° 0 mm 2 mps 757 mmHg 24%
    14:00 +35°C° 0 mm 2 mps 756 mmHg 20%
    15:00 +35°C° 0 mm 2 mps 756 mmHg 19%
    16:00 +35°C° 0 mm 3 mps 756 mmHg 17%
    17:00 +35°C° 0 mm 3 mps 755 mmHg 16%
    18:00 +34°C° 0 mm 3 mps 756 mmHg 18%
    19:00 +31°C° 0 mm 3 mps 756 mmHg 19%
    20:00 +30°C° 0 mm 3 mps 756 mmHg 21%
    21:00 +28°C° 0 mm 4 mps 757 mmHg 26%
    22:00 +27°C° 0 mm 5 mps 757 mmHg 32%
    23:00 +24°C° 0 mm 7 mps 757 mmHg 38%

    28 May, Thursday

    Time Temperature Precipitation Wind Pressure Humidity
    00:00 +23°C° 0 mm 6 mps 757 mmHg 41%
    01:00 +22°C° 0 mm 5 mps 757 mmHg 44%
    02:00 +21°C° 0 mm 4 mps 757 mmHg 47%
    03:00 +21°C° 0 mm 4 mps 757 mmHg 49%
    04:00 +20°C° 0 mm 4 mps 757 mmHg 51%
    05:00 +20°C° 0 mm 4 mps 757 mmHg 53%
    06:00 +21°C° 0 mm 4 mps 757 mmHg 50%
    07:00 +22°C° 0 mm 5 mps 757 mmHg 48%
    08:00 +22°C° 0 mm 5 mps 758 mmHg 45%
    09:00 +25°C° 0 mm 5 mps 758 mmHg 40%
    10:00 +27°C° 0 mm 4 mps 758 mmHg 35%
    11:00 +29°C° 0 mm 3 mps 758 mmHg 30%
    12:00 +30°C° 0 mm 3 mps 757 mmHg 27%
    13:00 +31°C° 0 mm 3 mps 757 mmHg 25%
    14:00 +32°C° 0 mm 2 mps 756 mmHg 23%
    15:00 +33°C° 0 mm 3 mps 756 mmHg 22%
    16:00 +33°C° 0 mm 4 mps 756 mmHg 22%
    17:00 +33°C° 0 mm 6 mps 756 mmHg 22%
    18:00 +30°C° 0 mm 5 mps 756 mmHg 24%
    19:00 +29°C° 0 mm 4 mps 756 mmHg 27%
    20:00 +27°C° 0 mm 4 mps 757 mmHg 29%
    21:00 +26°C° 0 mm 5 mps 757 mmHg 34%
    22:00 +24°C° 0 mm 6 mps 757 mmHg 39%
    23:00 +23°C° 0 mm 7 mps 758 mmHg 43%

    29 May, Friday

    Time Temperature Precipitation Wind Pressure Humidity
    00:00 +22°C° 0 mm 6 mps 757 mmHg 47%
    01:00 +21°C° 0 mm 5 mps 757 mmHg 50%
    02:00 +20°C° 0 mm 4 mps 757 mmHg 54%
    03:00 +20°C° 0 mm 4 mps 757 mmHg 55%
    04:00 +19°C° 0 mm 3 mps 757 mmHg 57%
    05:00 +19°C° 0 mm 3 mps 757 mmHg 59%
    06:00 +20°C° 0 mm 3 mps 758 mmHg 56%
    07:00 +21°C° 0 mm 4 mps 758 mmHg 53%
    08:00 +22°C° 0 mm 4 mps 759 mmHg 50%
    09:00 +23°C° 0 mm 4 mps 759 mmHg 43%
    10:00 +26°C° 0 mm 3 mps 759 mmHg 36%
    11:00 +28°C° 0 mm 3 mps 759 mmHg 30%
    12:00 +29°C° 0 mm 2 mps 758 mmHg 26%
    13:00 +30°C° 0 mm 2 mps 758 mmHg 22%
    14:00 +31°C° 0 mm 2 mps 757 mmHg 18%
    15:00 +32°C° 0 mm 2 mps 757 mmHg 17%
    16:00 +32°C° 0 mm 2 mps 756 mmHg 15%
    17:00 +32°C° 0 mm 2 mps 756 mmHg 14%
    18:00 +30°C° 0 mm 2 mps 756 mmHg 16%
    19:00 +28°C° 0 mm 2 mps 756 mmHg 17%
    20:00 +27°C° 0 mm 1 mps 757 mmHg 18%
    21:00 +26°C° 0 mm 2 mps 757 mmHg 19%
    22:00 +26°C° 0 mm 3 mps 757 mmHg 20%
    23:00 +26°C° 0 mm 4 mps 757 mmHg 21%

    30 May, Saturday

    Time Temperature Precipitation Wind Pressure Humidity
    00:00 +25°C° 0 mm 5 mps 757 mmHg 29%
    01:00 +22°C° 0 mm 5 mps 757 mmHg 37%
    02:00 +21°C° 0 mm 6 mps 757 mmHg 45%
    03:00 +21°C° 0 mm 5 mps 757 mmHg 47%
    04:00 +20°C° 0 mm 5 mps 757 mmHg 48%
    05:00 +19°C° 0 mm 4 mps 757 mmHg 50%
    06:00 +20°C° 0 mm 5 mps 758 mmHg 47%
    07:00 +21°C° 0 mm 6 mps 758 mmHg 44%
    08:00 +22°C° 0 mm 7 mps 758 mmHg 41%
    09:00 +26°C° 0 mm 6 mps 758 mmHg 34%
    10:00 +28°C° 0 mm 6 mps 758 mmHg 27%
    11:00 +32°C° 0 mm 6 mps 758 mmHg 20%
    12:00 +33°C° 0 mm 4 mps 758 mmHg 18%
    13:00 +34°C° 0 mm 3 mps 757 mmHg 17%
    14:00 +35°C° 0 mm 2 mps 757 mmHg 15%
    15:00 +35°C° 0 mm 2 mps 756 mmHg 15%
    16:00 +34°C° 0 mm 1 mps 756 mmHg 15%
    17:00 +34°C° 0 mm 1 mps 756 mmHg 14%
    18:00 +32°C° 0 mm 1 mps 756 mmHg 16%
    19:00 +30°C° 0 mm 1 mps 756 mmHg 18%
    20:00 +29°C° 0 mm 2 mps 756 mmHg 20%
    21:00 +28°C° 0 mm 2 mps 756 mmHg 20%
    22:00 +28°C° 0 mm 3 mps 757 mmHg 20%
    23:00 +27°C° 0 mm 3 mps 757 mmHg 20%
    Show more